Regional Weather Roundup
Issued by NWS Cleveland, OH

Home | Current Version | Previous Version | Graphics & Text | Print | Product List | Glossary On
Versions: 1 2 3 4 5 6 7 8 9 10 11 12 13 14 15 16 17 18 19 20 21 22 23 24 25 26 27 28 29 30 31 32 33 34 35 36 37 38 39 40 41 42 43 44 45 46 47 48 49 50
000
ASUS41 KCLE 210000
RWRCLE
OHIO REGIONAL WEATHER ROUNDUP
NATIONAL WEATHER SERVICE WILMINGTON, OH
800 PM EDT WED AUG 20 2014

NOTE: "FAIR" INDICATES FEW OR NO CLOUDS BELOW 12,000 FEET WITH NO
SIGNIFICANT WEATHER AND/OR OBSTRUCTIONS TO VISIBILITY.

OHZ001>008-015>018-024>027-034-035-043-044-210100-
   NORTHWEST OHIO

CITY           SKY/WX    TMP DP  RH WIND       PRES   REMARKS
DEFIANCE       CLEAR     80  67  64 CALM      29.90R
FINDLAY        CLEAR     80  67  64 SW5       29.90S
TOLEDO EXPRESS CLEAR     80  66  62 NW3       29.89R
TOLEDO METCALF CLEAR     80  65  59 NW6       29.90R
LIMA           CLEAR     80  67  64 CALM      29.91S
$$

OHZ009>014-019>023-028>033-038-089-210100-
   NORTHEAST OHIO

CITY           SKY/WX    TMP DP  RH WIND       PRES   REMARKS
CLE-HOPKINS    PTCLDY    77  67  71 W5        29.93R
CLE-LAKEFRONT  MOCLDY    76  69  79 CALM      29.90S
CUY CO. ARPT   MOCLDY    77  70  78 W7        29.93R
LORAIN-ELYRIA  CLEAR     79  68  69 NE3       29.92S
ASHTABULA      CLEAR     72  68  87 S7        29.93S
AKRON-CANTON   PTCLDY    76  68  76 SW5       29.94R
WOOSTER        NOT AVBL
MANSFIELD      CLEAR     78  65  63 CALM      29.95R
YOUNGSTOWN     MOCLDY    69  67  93 E5        29.95R
$$

OHZ042-051>053-060>062-070>072-077>081-210100-
  SOUTHWEST OHIO

CITY           SKY/WX    TMP DP  RH WIND       PRES   REMARKS
CINC-COVINGTON MOCLDY    74  68  81 SW6       29.96S
CINC-LUNKEN    PTCLDY    73  70  90 W6        29.94F
HAMILTON       PTCLDY    77  69  76 W3        29.94S
DAYTON         NOT AVBL
WRIGHT-PAT AFB CLEAR     83  65  54 SW5       29.93R
DAYTON GENERAL PTCLDY    80  69  69 S5        29.92F
WILMINGTON     PTCLDY    78  65  63 SW6       29.94R
$$

OHZ036-037-039>041-045>050-054>059-063>069-073>076-082>088-210100-
  CENTRAL AND SOUTHEAST OHIO

CITY           SKY/WX    TMP DP  RH WIND       PRES   REMARKS
COLUMBUS       PTCLDY    84  64  50 NW6       29.92R
OSU AIRPORT    CLEAR     79  64  60 W6        29.92S
BOLTON FIELD   NOT AVBL
RICKENBACK AFB NOT AVBL
NEWARK         CLEAR     75  72  90 CALM      29.93R
MARION         CLEAR     80  66  62 CALM      29.92S
LANCASTER      CLEAR     78  67  68 W3        29.94R
ZANESVILLE     PTCLDY    71  67  87 CALM      29.94F
NEW PHILLY     CLEAR     72  70  93 S5        29.94S
$$


USA.gov is the U.S. government's official web portal to all federal, state and local government web resources and services.